Location: Tel Aviv
(32.0670°N, 34.7670°E)
Time: 02:04:09
(UTC+03:00)

Vanguard 2 - Pass Details

Date: 28 January 2022
Orbit: 552 x 2935 km, 32.9° (Epoch: 26 May)

Event Time Altitude Azimuth Distance (km) Brightness Sun altitude
Rises 23:53:50 0° 284° (WNW) 5,200 - -76.2°
Reaches altitude 10° 23:56:48 10° 282° (WNW) 4,473 - -76.2°
Maximum altitude 00:10:09 70° 202° (SSW) 2,780 - -75.7°
Drops below altitude 10° 00:27:58 10° 123° (ESE) 5,749 - -74.2°
Exits shadow 00:29:38 - 123° (ESE) 6,111 12.1 -74.0°
Sets 00:32:22 0° 122° (ESE) 6,699 12.3 -73.7°
